Weather History for Muscle Shoals, AL

Change the Weather History Date:

Monday, March 31, 2014

  Actual Average Record
Temperature  
Mean Temperature 57 °F 57 °F  
Max Temperature 79 °F 69 °F 86 °F (1963)
Min Temperature 34 °F 45 °F 26 °F (1923)
Degree Days  
Heating Degree Days 8 9  
Month to date heating degree days 443 378  
Since 1 July heating degree days 3214 2913  
Cooling Degree Days 0 1  
Month to date cooling degree days 0 12  
Year to date cooling degree days 0 13  
Growing Degree Days 7 (Base 50)    
Moisture  
Dew Point 33 °F    
Average Humidity 52    
Maximum Humidity 92    
Minimum Humidity 12    
Precipitation  
Precipitation 0.00 in 0.16 in 2.20 in (1932)
Month to date precipitation 2.62 4.76  
Year to date precipitation 8.31 14.03  
Snow  
Snow 0.00 in - - ()
Month to date snowfall T  
Since 1 July snowfall 1.4  
Snow Depth 0.00 in    
Sea Level Pressure  
Sea Level Pressure 30.11 in    
Wind  
Wind Speed 4 mph (SSE)    
Max Wind Speed 14 mph    
Max Gust Speed 18 mph    
Visibility 10 miles    
Events      
T = Trace of Precipitation, MM = Missing Value Source: NWS Daily Summary

Daily Weather History Graph

Daily Weather History Graph

Search for Another Location

Airport:

Trip Planner

Search our weather history database for the weather conditions in past years. The results will help you decide how hot, cold, wet, or windy it might be!

Date:

Astronomy

Mar. 31, 2014 Rise Set
Actual Time 6:38 AM CDT 7:10 PM CDT
Civil Twilight 6:13 AM CDT 7:36 PM CDT
Nautical Twilight 5:43 AM CDT 8:06 PM CDT
Astronomical Twilight 5:13 AM CDT 8:36 PM CDT
Moon 7:04 AM CDT (3/31) 8:25 PM CDT (3/31)
Length of Visible Light 13h 22m
Length of Day
12h 32m
New Moon, 1% of the Moon is Illuminated
Mar 31
New Moon
Apr 7
First Quarter
Apr 15
Full
Apr 22
Last Quarter
Apr 29
New

Hourly Weather History & Observations

Time (CDT) Temp. Windchill Dew Point Humidity Pressure Visibility Wind Dir Wind Speed Gust Speed Precip Events Conditions
12:53 AM 42.1 °F - 36.0 °F 79% 30.16 in 10.0 mi Calm Calm - N/A   Clear
1:53 AM 39.9 °F - 35.1 °F 83% 30.16 in 10.0 mi Calm Calm - N/A   Clear
2:53 AM 37.9 °F - 35.1 °F 89% 30.16 in 10.0 mi Calm Calm - N/A   Clear
3:53 AM 37.0 °F - 33.1 °F 86% 30.14 in 9.0 mi Calm Calm - N/A   Clear
4:53 AM 35.1 °F - 32.0 °F 89% 30.14 in 8.0 mi Calm Calm - N/A   Clear
5:53 AM 37.0 °F - 33.1 °F 86% 30.16 in 8.0 mi Calm Calm - N/A   Clear
6:53 AM 37.0 °F - 33.1 °F 86% 30.17 in 9.0 mi Calm Calm - N/A   Clear
7:53 AM 43.0 °F 39.5 °F 37.9 °F 82% 30.19 in 9.0 mi ESE 5.8 mph - N/A   Clear
8:53 AM 50.0 °F - 39.9 °F 68% 30.20 in 10.0 mi SE 3.5 mph - N/A   Clear
9:53 AM 57.0 °F - 37.0 °F 47% 30.20 in 10.0 mi SE 6.9 mph - N/A   Clear
10:53 AM 64.0 °F - 36.0 °F 35% 30.18 in 10.0 mi East 5.8 mph - N/A   Clear
11:53 AM 66.9 °F - 35.1 °F 31% 30.16 in 10.0 mi SE 4.6 mph - N/A   Clear
12:53 PM 72.0 °F - 35.1 °F 26% 30.13 in 10.0 mi SSE 8.1 mph - N/A   Clear
1:53 PM 75.0 °F - 30.9 °F 20% 30.10 in 10.0 mi SE 6.9 mph - N/A   Clear
2:53 PM 75.9 °F - 30.0 °F 19% 30.07 in 10.0 mi SSE 6.9 mph - N/A   Clear
3:53 PM 79.0 °F - 23.0 °F 13% 30.04 in 10.0 mi South 10.4 mph 16.1 mph N/A   Clear
4:53 PM 78.1 °F - 27.0 °F 15% 30.03 in 10.0 mi South 8.1 mph - N/A   Clear
5:53 PM 75.9 °F - 30.0 °F 19% 30.02 in 10.0 mi South 5.8 mph - N/A   Clear
6:53 PM 70.0 °F - 30.0 °F 23% 30.03 in 10.0 mi SSW 6.9 mph - N/A   Clear
7:53 PM 64.9 °F - 32.0 °F 29% 30.04 in 10.0 mi South 3.5 mph - N/A   Clear
8:53 PM 61.0 °F - 35.1 °F 38% 30.06 in 10.0 mi Calm Calm - N/A   Clear
9:53 PM 61.0 °F - 33.1 °F 35% 30.06 in 10.0 mi Calm Calm - N/A   Clear
10:53 PM 63.0 °F - 35.1 °F 35% 30.05 in 10.0 mi South 5.8 mph - N/A   Clear
11:53 PM 68.0 °F - 30.9 °F 25% 30.02 in 10.0 mi South 10.4 mph 17.3 mph N/A   Mostly Cloudy